Weather History for McGregor, MN

Change the Weather History Date:

Saturday, August 17, 2013

  Actual Average (KAIT) Record (KAIT)
Temperature  
Mean Temperature 64 °F -  
Max Temperature 78 °F 76 °F 89 °F (1961)
Min Temperature 50 °F 54 °F 37 °F (1963)
Degree Days  
Heating Degree Days 1    
Growing Degree Days 14 (Base 50)    
Moisture  
Dew Point 54 °F    
Average Humidity 69    
Maximum Humidity 100    
Minimum Humidity 42    
Precipitation  
Precipitation 0.00 in - - ()
Sea Level Pressure  
Sea Level Pressure 30.14 in    
Wind  
Wind Speed 5 mph (South)    
Max Wind Speed 16 mph    
Max Gust Speed 25 mph    
Visibility 8 miles    
Events      
Averages and records for this station are not official NWS values.
T = Trace of Precipitation, MM = Missing Value Source: NWS Daily Summary

Daily Weather History Graph

Daily Weather History Graph

Search for Another Location

Airport:

Trip Planner

Search our weather history database for the weather conditions in past years. The results will help you decide how hot, cold, wet, or windy it might be!

Date:

Astronomy

Aug. 17, 2013 Rise Set
Actual Time 6:14 AM CDT 8:19 PM CDT
Civil Twilight 5:41 AM CDT 8:52 PM CDT
Nautical Twilight 5:00 AM CDT 9:32 PM CDT
Astronomical Twilight 4:15 AM CDT 10:17 PM CDT
Moon 5:41 PM CDT (8/17) 2:11 AM CDT (8/17)
Length of Visible Light 15h 10m
Length of Day
14h 05m
Waxing Gibbous, 84% of the Moon is Illuminated
Aug 17
Waxing Gibbous
Aug 20
Full
Aug 28
Last Quarter
Sep 5
New
Sep 12
First Quarter

Hourly Weather History & Observations

Time (CDT) Temp. Dew Point Humidity Pressure Visibility Wind Dir Wind Speed Gust Speed Precip Events Conditions
12:12 AM 59.0 °F 53.6 °F 82% 30.17 in 10.0 mi Calm Calm - N/A   Clear
12:32 AM 55.4 °F 53.6 °F 94% 30.17 in 10.0 mi Calm Calm - N/A   Clear
12:53 AM 55.4 °F 53.6 °F 94% 30.17 in 10.0 mi Calm Calm - N/A   Clear
1:13 AM 53.6 °F 51.8 °F 94% 30.17 in 0.8 mi Calm Calm - N/A   Unknown
1:32 AM 53.6 °F 53.6 °F 100% 30.17 in 0.8 mi Calm Calm - N/A   Unknown
1:53 AM 53.6 °F 53.6 °F 100% 30.17 in 2.0 mi Calm Calm - N/A   Clear
2:10 AM 53.6 °F 51.8 °F 94% 30.17 in 0.8 mi Calm Calm - N/A   Unknown
2:32 AM 50.0 °F 50.0 °F 100% 30.17 in 0.5 mi Calm Calm - N/A   Unknown
2:52 AM 51.8 °F 51.8 °F 100% 30.17 in 1.2 mi Calm Calm - N/A   Unknown
3:12 AM 53.6 °F 51.8 °F 94% 30.17 in 10.0 mi Calm Calm - N/A   Clear
3:32 AM 53.6 °F 53.6 °F 100% 30.17 in 10.0 mi Calm Calm - N/A   Clear
3:52 AM 51.8 °F 51.8 °F 100% 30.17 in 7.0 mi Calm Calm - N/A   Clear
4:12 AM 50.0 °F 48.2 °F 94% 30.17 in 10.0 mi Calm Calm - N/A   Clear
4:31 AM 50.0 °F 48.2 °F 94% 30.17 in 0.5 mi Calm Calm - N/A   Unknown
4:53 AM 51.8 °F 50.0 °F 94% 30.17 in 10.0 mi Calm Calm - N/A   Clear
5:12 AM 50.0 °F 48.2 °F 94% 30.17 in 1.5 mi Calm Calm - N/A   Unknown
5:32 AM 51.8 °F 50.0 °F 94% 30.17 in 0.2 mi Calm Calm - N/A   Unknown
5:53 AM 50.0 °F 48.2 °F 94% 30.17 in 0.5 mi Calm Calm - N/A   Unknown
6:13 AM 50.0 °F 50.0 °F 100% 30.17 in 0.8 mi Calm Calm - N/A   Unknown
6:32 AM 51.8 °F 50.0 °F 94% 30.18 in 1.5 mi Calm Calm - N/A   Unknown
6:52 AM 51.8 °F 51.8 °F 100% 30.18 in 5.0 mi Calm Calm - N/A   Clear
7:12 AM 53.6 °F 53.6 °F 100% 30.18 in 10.0 mi South 3.5 mph - N/A   Clear
7:32 AM 55.4 °F 55.4 °F 100% 30.18 in 10.0 mi South 3.5 mph - N/A   Clear
7:52 AM 57.2 °F 55.4 °F 94% 30.18 in 10.0 mi South 4.6 mph - N/A   Clear
8:12 AM 59.0 °F 59.0 °F 100% 30.18 in 10.0 mi South 5.8 mph - N/A   Clear
8:33 AM 62.6 °F 57.2 °F 82% 30.17 in 10.0 mi South 4.6 mph - N/A   Clear
8:50 AM 64.4 °F 57.2 °F 77% 30.17 in 10.0 mi South 9.2 mph - N/A   Clear
9:12 AM 68.0 °F 55.4 °F 64% 30.18 in 10.0 mi South 9.2 mph - N/A   Clear
9:32 AM 69.8 °F 55.4 °F 60% 30.17 in 10.0 mi SSW 10.4 mph - N/A   Clear
9:50 AM 69.8 °F 55.4 °F 60% 30.17 in 10.0 mi South 12.7 mph 17.3 mph N/A   Clear
10:12 AM 71.6 °F 57.2 °F 60% 30.17 in 10.0 mi South 12.7 mph 17.3 mph N/A   Clear
10:32 AM 73.4 °F 55.4 °F 53% 30.17 in 7.0 mi SSW 11.5 mph 16.1 mph N/A   Clear
10:53 AM 73.4 °F 55.4 °F 53% 30.17 in 10.0 mi South 15.0 mph 18.4 mph N/A   Clear
11:13 AM 73.4 °F 55.4 °F 53% 30.17 in 10.0 mi SSW 15.0 mph 19.6 mph N/A   Clear
11:33 AM 73.4 °F 55.4 °F 53% 30.17 in 10.0 mi SSW 12.7 mph 20.7 mph N/A   Clear
11:51 AM 73.4 °F 55.4 °F 53% 30.17 in 10.0 mi SSW 15.0 mph 21.9 mph N/A   Clear
12:13 PM 77.0 °F 55.4 °F 47% 30.16 in 10.0 mi SSW 15.0 mph 23.0 mph N/A   Clear
12:33 PM 77.0 °F 55.4 °F 47% 30.16 in 10.0 mi SSW 15.0 mph 24.2 mph N/A   Clear
12:51 PM 77.0 °F 53.6 °F 44% 30.15 in 10.0 mi South 16.1 mph 20.7 mph N/A   Clear
1:13 PM 77.0 °F 55.4 °F 47% 30.15 in 10.0 mi South 16.1 mph 23.0 mph N/A   Scattered Clouds
1:33 PM 77.0 °F 55.4 °F 47% 30.14 in 10.0 mi South 16.1 mph 25.3 mph N/A   Scattered Clouds
1:53 PM 77.0 °F 53.6 °F 44% 30.13 in 10.0 mi South 15.0 mph 21.9 mph N/A   Scattered Clouds
2:12 PM 77.0 °F 53.6 °F 44% 30.13 in 10.0 mi South 13.8 mph 20.7 mph N/A   Clear
2:32 PM 77.0 °F 53.6 °F 44% 30.14 in 10.0 mi SSW 13.8 mph 21.9 mph N/A   Scattered Clouds
2:51 PM 77.0 °F 53.6 °F 44% 30.13 in 10.0 mi SSW 15.0 mph 21.9 mph N/A   Scattered Clouds
3:13 PM 78.8 °F 53.6 °F 42% 30.12 in 10.0 mi South 12.7 mph 19.6 mph N/A   Clear
3:33 PM 78.8 °F 53.6 °F 42% 30.12 in 10.0 mi SSW 16.1 mph 21.9 mph N/A   Clear
3:52 PM 78.8 °F 55.4 °F 44% 30.11 in 10.0 mi SSW 16.1 mph 20.7 mph N/A   Clear
4:12 PM 78.8 °F 53.6 °F 42% 30.11 in 10.0 mi SSW 16.1 mph 20.7 mph N/A   Clear
4:33 PM 78.8 °F 53.6 °F 42% 30.10 in 10.0 mi SSW 12.7 mph 20.7 mph N/A   Clear
4:51 PM 78.8 °F 53.6 °F 42% 30.09 in 10.0 mi SSW 15.0 mph 23.0 mph N/A   Clear
5:13 PM 78.8 °F 53.6 °F 42% 30.10 in 10.0 mi SSW 16.1 mph 20.7 mph N/A   Clear
5:33 PM 78.8 °F 55.4 °F 44% 30.09 in 10.0 mi SSW 12.7 mph 17.3 mph N/A   Clear
5:53 PM 78.8 °F 55.4 °F 44% 30.09 in 10.0 mi SSW 9.2 mph 17.3 mph N/A   Clear
6:13 PM 77.0 °F 55.4 °F 47% 30.09 in 10.0 mi South 15.0 mph 18.4 mph N/A   Clear
6:33 PM 77.0 °F 55.4 °F 47% 30.09 in 10.0 mi South 10.4 mph 18.4 mph N/A   Clear
6:53 PM 77.0 °F 55.4 °F 47% 30.09 in 10.0 mi SSW 9.2 mph - N/A   Clear
7:13 PM 75.2 °F 55.4 °F 50% 30.09 in 10.0 mi SSW 9.2 mph - N/A   Clear
7:33 PM 73.4 °F 55.4 °F 53% 30.09 in 10.0 mi South 8.1 mph - N/A   Clear
7:52 PM 71.6 °F 57.2 °F 60% 30.08 in 10.0 mi South 6.9 mph - N/A   Clear
8:13 PM 69.8 °F 57.2 °F 64% 30.08 in 10.0 mi South 5.8 mph - N/A   Clear
8:33 PM 69.8 °F 57.2 °F 64% 30.08 in 10.0 mi South 6.9 mph - N/A   Clear
8:52 PM 68.0 °F 57.2 °F 68% 30.08 in 10.0 mi South 6.9 mph - N/A   Clear
9:13 PM 68.0 °F 55.4 °F 64% 30.08 in 10.0 mi South 5.8 mph - N/A   Clear
9:32 PM 66.2 °F 55.4 °F 68% 30.08 in 10.0 mi South 5.8 mph - N/A   Clear
9:53 PM 66.2 °F 55.4 °F 68% 30.08 in 10.0 mi South 5.8 mph - N/A   Clear
10:13 PM 66.2 °F 55.4 °F 68% 30.09 in 10.0 mi South 6.9 mph - N/A   Clear
10:32 PM 66.2 °F 55.4 °F 68% 30.09 in 10.0 mi South 6.9 mph - N/A   Clear
10:52 PM 64.4 °F 55.4 °F 73% 30.08 in 10.0 mi South 5.8 mph - N/A   Clear
11:13 PM 64.4 °F 55.4 °F 73% 30.09 in 10.0 mi South 5.8 mph - N/A   Clear
11:33 PM 62.6 °F 55.4 °F 77% 30.09 in 10.0 mi South 5.8 mph - N/A   Clear
11:52 PM 62.6 °F 55.4 °F 77% 30.09 in 10.0 mi South 4.6 mph - N/A   Clear